owner,sensor,date,latitude,longitude,vertical_datum,mass_concentration_of_oxygen_in_sea_water,qcFlag 
DISL,ioos:station:DISL:BSCA:1,2013-11-01T00:00:00Z,30.3288,-87.8293,2.236,7.43,1111122 
DISL,ioos:station:DISL:BSCA:1,2013-11-01T00:30:00Z,30.3288,-87.8293,2.259,7.34,1111122 
DISL,ioos:station:DISL:BSCA:1,2013-11-01T01:00:00Z,30.3288,-87.8293,2.274,7.25,1111122 
DISL,ioos:station:DISL:BSCA:1,2013-11-01T01:30:00Z,30.3288,-87.8293,2.281,7.23,1111122 
DISL,ioos:station:DISL:BSCA:1,2013-11-01T02:00:00Z,30.3288,-87.8293,2.292,7.16,1111122 
DISL,ioos:station:DISL:BSCA:1,2013-11-01T02:30:00Z,30.3288,-87.8293,2.305,6.98,1111122 
DISL,ioos:station:DISL:BSCA:1,2013-11-01T03:00:00Z,30.3288,-87.8293,2.308,7.1,1111122 
DISL,ioos:station:DISL:BSCA:1,2013-11-01T03:30:00Z,30.3288,-87.8293,2.308,7.12,1111122 
DISL,ioos:station:DISL:BSCA:1,2013-11-01T04:00:00Z,30.3288,-87.8293,2.318,7.42,1111122 
DISL,ioos:station:DISL:BSCA:1,2013-11-01T04:30:00Z,30.3288,-87.8293,2.306,7.34,1111122 
DISL,ioos:station:DISL:BSCA:1,2013-11-01T05:00:00Z,30.3288,-87.8293,2.292,7.45,1111122 
DISL,ioos:station:DISL:BSCA:1,2013-11-01T05:30:00Z,30.3288,-87.8293,2.264,7.44,1111122 
DISL,ioos:station:DISL:BSCA:1,2013-11-01T06:00:00Z,30.3288,-87.8293,2.233,7.32,1111122 
DISL,ioos:station:DISL:BSCA:1,2013-11-01T06:30:00Z,30.3288,-87.8293,2.206,7.29,1111122 
DISL,ioos:station:DISL:BSCA:1,2013-11-01T07:00:00Z,30.3288,-87.8293,2.198,7.35,1111122 
DISL,ioos:station:DISL:BSCA:1,2013-11-01T07:30:00Z,30.3288,-87.8293,2.205,7.29,1111122 
DISL,ioos:station:DISL:BSCA:1,2013-11-01T08:00:00Z,30.3288,-87.8293,2.185,7.3,1111122 
DISL,ioos:station:DISL:BSCA:1,2013-11-01T08:30:00Z,30.3288,-87.8293,2.194,7.31,1111122 
DISL,ioos:station:DISL:BSCA:1,2013-11-01T09:00:00Z,30.3288,-87.8293,2.179,7.31,1111122 
DISL,ioos:station:DISL:BSCA:1,2013-11-01T09:30:00Z,30.3288,-87.8293,2.165,7.42,1111122 
DISL,ioos:station:DISL:BSCA:1,2013-11-01T10:00:00Z,30.3288,-87.8293,2.14,7.34,1111122 
DISL,ioos:station:DISL:BSCA:1,2013-11-01T10:30:00Z,30.3288,-87.8293,2.11,7.17,1111122 
DISL,ioos:station:DISL:BSCA:1,2013-11-01T11:00:00Z,30.3288,-87.8293,2.11,7.0,1111122 
DISL,ioos:station:DISL:BSCA:1,2013-11-01T11:30:00Z,30.3288,-87.8293,2.066,7.03,1111122 
DISL,ioos:station:DISL:BSCA:1,2013-11-01T12:00:00Z,30.3288,-87.8293,2.062,7.02,1111122 
DISL,ioos:station:DISL:BSCA:1,2013-11-01T12:30:00Z,30.3288,-87.8293,2.027,6.98,1111122 
DISL,ioos:station:DISL:BSCA:1,2013-11-01T13:00:00Z,30.3288,-87.8293,2.03,6.89,1111122 
DISL,ioos:station:DISL:BSCA:1,2013-11-01T13:30:00Z,30.3288,-87.8293,2.062,6.83,1111122 
DISL,ioos:station:DISL:BSCA:1,2013-11-01T14:00:00Z,30.3288,-87.8293,2.102,7.23,1111122 
DISL,ioos:station:DISL:BSCA:1,2013-11-01T14:30:00Z,30.3288,-87.8293,2.156,7.33,1111122 
DISL,ioos:station:DISL:BSCA:1,2013-11-01T15:00:00Z,30.3288,-87.8293,2.112,7.24,1111122 
DISL,ioos:station:DISL:BSCA:1,2013-11-01T15:30:00Z,30.3288,-87.8293,2.029,7.32,1111122 
DISL,ioos:station:DISL:BSCA:1,2013-11-01T16:00:00Z,30.3288,-87.8293,1.961,7.24,1111122 
DISL,ioos:station:DISL:BSCA:1,2013-11-01T16:30:00Z,30.3288,-87.8293,1.886,7.27,1111122 
DISL,ioos:station:DISL:BSCA:1,2013-11-01T17:00:00Z,30.3288,-87.8293,1.907,7.2,1111122 
DISL,ioos:station:DISL:BSCA:1,2013-11-01T17:30:00Z,30.3288,-87.8293,1.934,7.11,1111122 
DISL,ioos:station:DISL:BSCA:1,2013-11-01T18:00:00Z,30.3288,-87.8293,1.977,7.03,1111122 
DISL,ioos:station:DISL:BSCA:1,2013-11-01T18:30:00Z,30.3288,-87.8293,2.025,7.11,1111122 
DISL,ioos:station:DISL:BSCA:1,2013-11-01T19:00:00Z,30.3288,-87.8293,2.068,7.45,1111122 
DISL,ioos:station:DISL:BSCA:1,2013-11-01T19:30:00Z,30.3288,-87.8293,2.094,7.44,1111122 
DISL,ioos:station:DISL:BSCA:1,2013-11-01T20:00:00Z,30.3288,-87.8293,2.099,7.31,1111122 
DISL,ioos:station:DISL:BSCA:1,2013-11-01T20:30:00Z,30.3288,-87.8293,2.114,7.39,1111122 
DISL,ioos:station:DISL:BSCA:1,2013-11-01T21:00:00Z,30.3288,-87.8293,2.122,7.4,1111122 
DISL,ioos:station:DISL:BSCA:1,2013-11-01T21:30:00Z,30.3288,-87.8293,2.145,7.05,1111122 
DISL,ioos:station:DISL:BSCA:1,2013-11-01T22:00:00Z,30.3288,-87.8293,2.172,7.06,1111122 
DISL,ioos:station:DISL:BSCA:1,2013-11-01T22:30:00Z,30.3288,-87.8293,2.196,7.43,1111122 
DISL,ioos:station:DISL:BSCA:1,2013-11-01T23:00:00Z,30.3288,-87.8293,2.239,7.33,1111122 
DISL,ioos:station:DISL:BSCA:1,2013-11-01T23:30:00Z,30.3288,-87.8293,2.27,7.49,1111122 
DISL,ioos:station:DISL:BSCA:1,2013-11-02T00:00:00Z,30.3288,-87.8293,2.301,7.54,1111122 
DISL,ioos:station:DISL:BSCA:1,2013-11-02T00:30:00Z,30.3288,-87.8293,2.346,7.7,1111122 
DISL,ioos:station:DISL:BSCA:1,2013-11-02T01:00:00Z,30.3288,-87.8293,2.37,7.88,1111122 
DISL,ioos:station:DISL:BSCA:1,2013-11-02T01:30:00Z,30.3288,-87.8293,2.396,7.84,1111122 
DISL,ioos:station:DISL:BSCA:1,2013-11-02T02:00:00Z,30.3288,-87.8293,2.397,7.89,1111122 
DISL,ioos:station:DISL:BSCA:1,2013-11-02T02:30:00Z,30.3288,-87.8293,2.403,7.85,1111122 
DISL,ioos:station:DISL:BSCA:1,2013-11-02T03:00:00Z,30.3288,-87.8293,2.379,7.96,1111122 
DISL,ioos:station:DISL:BSCA:1,2013-11-02T03:30:00Z,30.3288,-87.8293,2.347,7.87,1111122 
DISL,ioos:station:DISL:BSCA:1,2013-11-02T04:00:00Z,30.3288,-87.8293,2.303,7.77,1111122 
DISL,ioos:station:DISL:BSCA:1,2013-11-02T04:30:00Z,30.3288,-87.8293,2.273,7.8,1111122 
DISL,ioos:station:DISL:BSCA:1,2013-11-02T05:00:00Z,30.3288,-87.8293,2.234,7.69,1111122 
DISL,ioos:station:DISL:BSCA:1,2013-11-02T05:30:00Z,30.3288,-87.8293,2.206,7.39,1111122 
DISL,ioos:station:DISL:BSCA:1,2013-11-02T06:00:00Z,30.3288,-87.8293,2.179,7.35,1111122 
DISL,ioos:station:DISL:BSCA:1,2013-11-02T06:30:00Z,30.3288,-87.8293,2.146,7.28,1111122 
DISL,ioos:station:DISL:BSCA:1,2013-11-02T07:00:00Z,30.3288,-87.8293,2.114,7.24,1111122 
DISL,ioos:station:DISL:BSCA:1,2013-11-02T07:30:00Z,30.3288,-87.8293,2.081,7.28,1111122 
DISL,ioos:station:DISL:BSCA:1,2013-11-02T08:00:00Z,30.3288,-87.8293,2.052,7.26,1111122 
DISL,ioos:station:DISL:BSCA:1,2013-11-02T08:30:00Z,30.3288,-87.8293,2.019,7.21,1111122 
DISL,ioos:station:DISL:BSCA:1,2013-11-02T09:00:00Z,30.3288,-87.8293,1.989,7.38,1111122 
DISL,ioos:station:DISL:BSCA:1,2013-11-02T09:30:00Z,30.3288,-87.8293,1.956,7.36,1111122 
DISL,ioos:station:DISL:BSCA:1,2013-11-02T10:00:00Z,30.3288,-87.8293,1.933,7.22,1111122 
DISL,ioos:station:DISL:BSCA:1,2013-11-02T10:30:00Z,30.3288,-87.8293,1.927,7.06,1111122 
DISL,ioos:station:DISL:BSCA:1,2013-11-02T11:00:00Z,30.3288,-87.8293,1.915,7.23,1111122 
DISL,ioos:station:DISL:BSCA:1,2013-11-02T11:30:00Z,30.3288,-87.8293,1.887,7.16,1111122 
DISL,ioos:station:DISL:BSCA:1,2013-11-02T12:00:00Z,30.3288,-87.8293,1.9,7.18,1111122 
DISL,ioos:station:DISL:BSCA:1,2013-11-02T12:30:00Z,30.3288,-87.8293,1.888,7.09,1111122 
DISL,ioos:station:DISL:BSCA:1,2013-11-02T13:00:00Z,30.3288,-87.8293,1.887,7.09,1111122 
DISL,ioos:station:DISL:BSCA:1,2013-11-02T13:30:00Z,30.3288,-87.8293,1.866,7.21,1111122 
DISL,ioos:station:DISL:BSCA:1,2013-11-02T14:00:00Z,30.3288,-87.8293,1.879,7.2,1111122 
DISL,ioos:station:DISL:BSCA:1,2013-11-02T14:30:00Z,30.3288,-87.8293,1.868,7.19,1111122 
DISL,ioos:station:DISL:BSCA:1,2013-11-02T15:00:00Z,30.3288,-87.8293,1.877,7.42,1111122 
DISL,ioos:station:DISL:BSCA:1,2013-11-02T15:30:00Z,30.3288,-87.8293,1.885,7.47,1111122 
DISL,ioos:station:DISL:BSCA:1,2013-11-02T16:00:00Z,30.3288,-87.8293,1.9,7.43,1111122 
DISL,ioos:station:DISL:BSCA:1,2013-11-02T16:30:00Z,30.3288,-87.8293,1.923,7.64,1111122 
DISL,ioos:station:DISL:BSCA:1,2013-11-02T17:00:00Z,30.3288,-87.8293,1.944,7.86,1111122 
DISL,ioos:station:DISL:BSCA:1,2013-11-02T17:30:00Z,30.3288,-87.8293,1.965,8.01,1111122 
DISL,ioos:station:DISL:BSCA:1,2013-11-02T18:00:00Z,30.3288,-87.8293,1.986,8.16,1111122 
DISL,ioos:station:DISL:BSCA:1,2013-11-02T18:30:00Z,30.3288,-87.8293,1.993,8.53,1111122 
DISL,ioos:station:DISL:BSCA:1,2013-11-02T19:00:00Z,30.3288,-87.8293,1.999,8.34,1111122 
DISL,ioos:station:DISL:BSCA:1,2013-11-02T19:30:00Z,30.3288,-87.8293,2.015,8.47,1111122 
DISL,ioos:station:DISL:BSCA:1,2013-11-02T20:00:00Z,30.3288,-87.8293,2.036,8.56,1111122 
DISL,ioos:station:DISL:BSCA:1,2013-11-02T20:30:00Z,30.3288,-87.8293,2.054,8.55,1111122 
DISL,ioos:station:DISL:BSCA:1,2013-11-02T21:00:00Z,30.3288,-87.8293,2.073,8.74,1111122 
DISL,ioos:station:DISL:BSCA:1,2013-11-02T21:30:00Z,30.3288,-87.8293,2.081,8.74,1111122 
DISL,ioos:station:DISL:BSCA:1,2013-11-02T22:00:00Z,30.3288,-87.8293,2.11,8.68,1111122 
DISL,ioos:station:DISL:BSCA:1,2013-11-02T22:30:00Z,30.3288,-87.8293,2.128,8.64,1111122 
DISL,ioos:station:DISL:BSCA:1,2013-11-02T23:00:00Z,30.3288,-87.8293,2.122,8.79,1111122 
DISL,ioos:station:DISL:BSCA:1,2013-11-02T23:30:00Z,30.3288,-87.8293,2.13,8.67,1111122 
DISL,ioos:station:DISL:BSCA:1,2013-11-03T00:00:00Z,30.3288,-87.8293,2.114,8.26,1111122 
DISL,ioos:station:DISL:BSCA:1,2013-11-03T00:30:00Z,30.3288,-87.8293,2.114,8.23,1111122 
DISL,ioos:station:DISL:BSCA:1,2013-11-03T01:00:00Z,30.3288,-87.8293,2.118,8.12,1111122 
DISL,ioos:station:DISL:BSCA:1,2013-11-03T01:30:00Z,30.3288,-87.8293,2.119,7.87,1111122 
DISL,ioos:station:DISL:BSCA:1,2013-11-03T02:00:00Z,30.3288,-87.8293,2.122,8.0,1111122 
DISL,ioos:station:DISL:BSCA:1,2013-11-03T02:30:00Z,30.3288,-87.8293,2.105,8.39,1111122 
DISL,ioos:station:DISL:BSCA:1,2013-11-03T03:00:00Z,30.3288,-87.8293,2.096,8.42,1111122 
DISL,ioos:station:DISL:BSCA:1,2013-11-03T03:30:00Z,30.3288,-87.8293,2.076,8.32,1111122 
DISL,ioos:station:DISL:BSCA:1,2013-11-03T04:00:00Z,30.3288,-87.8293,2.061,8.31,1111122 
DISL,ioos:station:DISL:BSCA:1,2013-11-03T04:30:00Z,30.3288,-87.8293,2.049,8.21,1111122 
DISL,ioos:station:DISL:BSCA:1,2013-11-03T05:00:00Z,30.3288,-87.8293,2.008,8.2,1111122 
DISL,ioos:station:DISL:BSCA:1,2013-11-03T05:30:00Z,30.3288,-87.8293,1.972,8.09,1111122 
DISL,ioos:station:DISL:BSCA:1,2013-11-03T06:00:00Z,30.3288,-87.8293,1.936,8.06,1111122 
DISL,ioos:station:DISL:BSCA:1,2013-11-03T06:30:00Z,30.3288,-87.8293,1.897,8.06,1111122 
DISL,ioos:station:DISL:BSCA:1,2013-11-03T07:00:00Z,30.3288,-87.8293,1.851,8.0,1111122 
DISL,ioos:station:DISL:BSCA:1,2013-11-03T07:30:00Z,30.3288,-87.8293,1.816,7.98,1111122 
DISL,ioos:station:DISL:BSCA:1,2013-11-03T08:00:00Z,30.3288,-87.8293,1.777,7.88,1111122 
DISL,ioos:station:DISL:BSCA:1,2013-11-03T08:30:00Z,30.3288,-87.8293,1.746,7.88,1111122 
DISL,ioos:station:DISL:BSCA:1,2013-11-03T09:00:00Z,30.3288,-87.8293,1.717,7.95,1111122 
DISL,ioos:station:DISL:BSCA:1,2013-11-03T09:30:00Z,30.3288,-87.8293,1.695,7.92,1111122 
DISL,ioos:station:DISL:BSCA:1,2013-11-03T10:00:00Z,30.3288,-87.8293,1.669,7.91,1111122 
DISL,ioos:station:DISL:BSCA:1,2013-11-03T10:30:00Z,30.3288,-87.8293,1.652,7.95,1111122 
DISL,ioos:station:DISL:BSCA:1,2013-11-03T11:00:00Z,30.3288,-87.8293,1.627,7.94,1111122 
DISL,ioos:station:DISL:BSCA:1,2013-11-03T11:30:00Z,30.3288,-87.8293,1.598,7.96,1111122 
DISL,ioos:station:DISL:BSCA:1,2013-11-03T12:00:00Z,30.3288,-87.8293,1.592,7.96,1111122 
DISL,ioos:station:DISL:BSCA:1,2013-11-03T12:30:00Z,30.3288,-87.8293,1.584,7.65,1111122 
DISL,ioos:station:DISL:BSCA:1,2013-11-03T13:00:00Z,30.3288,-87.8293,1.589,7.57,1111122 
DISL,ioos:station:DISL:BSCA:1,2013-11-03T13:30:00Z,30.3288,-87.8293,1.608,7.47,1111122 
DISL,ioos:station:DISL:BSCA:1,2013-11-03T14:00:00Z,30.3288,-87.8293,1.623,7.56,1111122 
DISL,ioos:station:DISL:BSCA:1,2013-11-03T14:30:00Z,30.3288,-87.8293,1.647,7.61,1111122 
DISL,ioos:station:DISL:BSCA:1,2013-11-03T15:00:00Z,30.3288,-87.8293,1.673,7.62,1111122 
DISL,ioos:station:DISL:BSCA:1,2013-11-03T15:30:00Z,30.3288,-87.8293,1.699,7.66,1111122 
DISL,ioos:station:DISL:BSCA:1,2013-11-03T16:00:00Z,30.3288,-87.8293,1.725,7.74,1111122 
DISL,ioos:station:DISL:BSCA:1,2013-11-03T16:30:00Z,30.3288,-87.8293,1.738,7.84,1111122 
DISL,ioos:station:DISL:BSCA:1,2013-11-03T17:00:00Z,30.3288,-87.8293,1.76,7.76,1111122 
DISL,ioos:station:DISL:BSCA:1,2013-11-03T17:30:00Z,30.3288,-87.8293,1.787,7.86,1111122 
DISL,ioos:station:DISL:BSCA:1,2013-11-03T18:00:00Z,30.3288,-87.8293,1.811,7.92,1111122 
DISL,ioos:station:DISL:BSCA:1,2013-11-03T18:30:00Z,30.3288,-87.8293,1.847,8.25,1111122 
DISL,ioos:station:DISL:BSCA:1,2013-11-03T19:00:00Z,30.3288,-87.8293,1.884,8.45,1111122 
DISL,ioos:station:DISL:BSCA:1,2013-11-03T19:30:00Z,30.3288,-87.8293,1.915,8.41,1111122 
DISL,ioos:station:DISL:BSCA:1,2013-11-03T20:00:00Z,30.3288,-87.8293,1.934,8.29,1111122 
DISL,ioos:station:DISL:BSCA:1,2013-11-03T20:30:00Z,30.3288,-87.8293,1.95,8.45,1111122 
DISL,ioos:station:DISL:BSCA:1,2013-11-03T21:00:00Z,30.3288,-87.8293,1.964,8.47,1111122 
DISL,ioos:station:DISL:BSCA:1,2013-11-03T21:30:00Z,30.3288,-87.8293,1.981,8.4,1111122 
DISL,ioos:station:DISL:BSCA:1,2013-11-03T22:00:00Z,30.3288,-87.8293,1.997,8.56,1111122 
DISL,ioos:station:DISL:BSCA:1,2013-11-03T22:30:00Z,30.3288,-87.8293,2.018,8.61,1111122 
DISL,ioos:station:DISL:BSCA:1,2013-11-03T23:00:00Z,30.3288,-87.8293,2.031,8.69,1111122 
DISL,ioos:station:DISL:BSCA:1,2013-11-03T23:30:00Z,30.3288,-87.8293,2.055,8.73,1111122 
DISL,ioos:station:DISL:BSCA:1,2013-11-04T00:00:00Z,30.3288,-87.8293,2.076,8.91,1111122 
DISL,ioos:station:DISL:BSCA:1,2013-11-04T00:30:00Z,30.3288,-87.8293,2.106,8.79,1111122 
DISL,ioos:station:DISL:BSCA:1,2013-11-04T01:00:00Z,30.3288,-87.8293,2.126,8.74,1111122 
DISL,ioos:station:DISL:BSCA:1,2013-11-04T01:30:00Z,30.3288,-87.8293,2.14,9.05,1111122 
DISL,ioos:station:DISL:BSCA:1,2013-11-04T02:00:00Z,30.3288,-87.8293,2.17,8.94,1111122 
DISL,ioos:station:DISL:BSCA:1,2013-11-04T02:30:00Z,30.3288,-87.8293,2.177,8.79,1111122 
DISL,ioos:station:DISL:BSCA:1,2013-11-04T03:00:00Z,30.3288,-87.8293,2.191,8.56,1111122 
DISL,ioos:station:DISL:BSCA:1,2013-11-04T03:30:00Z,30.3288,-87.8293,2.192,8.38,1111122 
DISL,ioos:station:DISL:BSCA:1,2013-11-04T04:00:00Z,30.3288,-87.8293,2.205,8.83,1111122 
DISL,ioos:station:DISL:BSCA:1,2013-11-04T04:30:00Z,30.3288,-87.8293,2.191,8.68,1111122 
DISL,ioos:station:DISL:BSCA:1,2013-11-04T05:00:00Z,30.3288,-87.8293,2.17,7.96,1111122 
DISL,ioos:station:DISL:BSCA:1,2013-11-04T05:30:00Z,30.3288,-87.8293,2.133,8.28,1111122 
DISL,ioos:station:DISL:BSCA:1,2013-11-04T06:00:00Z,30.3288,-87.8293,2.092,8.47,1111122 
DISL,ioos:station:DISL:BSCA:1,2013-11-04T06:30:00Z,30.3288,-87.8293,2.051,8.41,1111122 
DISL,ioos:station:DISL:BSCA:1,2013-11-04T07:00:00Z,30.3288,-87.8293,2.011,8.43,1111122 
DISL,ioos:station:DISL:BSCA:1,2013-11-04T07:30:00Z,30.3288,-87.8293,1.963,8.27,1111122 
DISL,ioos:station:DISL:BSCA:1,2013-11-04T08:00:00Z,30.3288,-87.8293,1.931,8.26,1111122 
DISL,ioos:station:DISL:BSCA:1,2013-11-04T08:30:00Z,30.3288,-87.8293,1.899,8.06,1111122 
DISL,ioos:station:DISL:BSCA:1,2013-11-04T09:00:00Z,30.3288,-87.8293,1.862,7.93,1111122 
DISL,ioos:station:DISL:BSCA:1,2013-11-04T09:30:00Z,30.3288,-87.8293,1.828,7.93,1111122 
DISL,ioos:station:DISL:BSCA:1,2013-11-04T10:00:00Z,30.3288,-87.8293,1.788,7.72,1111122 
DISL,ioos:station:DISL:BSCA:1,2013-11-04T10:30:00Z,30.3288,-87.8293,1.752,7.67,1111122 
DISL,ioos:station:DISL:BSCA:1,2013-11-04T11:00:00Z,30.3288,-87.8293,1.725,7.7,1111122 
DISL,ioos:station:DISL:BSCA:1,2013-11-04T11:30:00Z,30.3288,-87.8293,1.701,7.54,1111122 
DISL,ioos:station:DISL:BSCA:1,2013-11-04T12:00:00Z,30.3288,-87.8293,1.678,7.64,1111122 
DISL,ioos:station:DISL:BSCA:1,2013-11-04T12:30:00Z,30.3288,-87.8293,1.658,7.5,1111122 
DISL,ioos:station:DISL:BSCA:1,2013-11-04T13:00:00Z,30.3288,-87.8293,1.623,7.56,1111122 
DISL,ioos:station:DISL:BSCA:1,2013-11-04T13:30:00Z,30.3288,-87.8293,1.59,7.62,1111122 
DISL,ioos:station:DISL:BSCA:1,2013-11-04T14:00:00Z,30.3288,-87.8293,1.561,7.73,1111122 
DISL,ioos:station:DISL:BSCA:1,2013-11-04T14:30:00Z,30.3288,-87.8293,1.537,7.83,1111122 
DISL,ioos:station:DISL:BSCA:1,2013-11-04T15:00:00Z,30.3288,-87.8293,1.527,7.87,1111122 
DISL,ioos:station:DISL:BSCA:1,2013-11-04T15:30:00Z,30.3288,-87.8293,1.547,8.0,1111122 
DISL,ioos:station:DISL:BSCA:1,2013-11-04T16:00:00Z,30.3288,-87.8293,1.544,7.98,1111122 
DISL,ioos:station:DISL:BSCA:1,2013-11-04T16:30:00Z,30.3288,-87.8293,1.566,8.29,1111122 
DISL,ioos:station:DISL:BSCA:1,2013-11-04T17:00:00Z,30.3288,-87.8293,1.585,8.24,1111122 
DISL,ioos:station:DISL:BSCA:1,2013-11-04T17:30:00Z,30.3288,-87.8293,1.598,8.22,1111122 
DISL,ioos:station:DISL:BSCA:1,2013-11-04T18:00:00Z,30.3288,-87.8293,1.632,8.43,1111122 
DISL,ioos:station:DISL:BSCA:1,2013-11-04T18:30:00Z,30.3288,-87.8293,1.648,8.67,1111122 
DISL,ioos:station:DISL:BSCA:1,2013-11-04T19:00:00Z,30.3288,-87.8293,1.664,8.41,1111122 
DISL,ioos:station:DISL:BSCA:1,2013-11-04T19:30:00Z,30.3288,-87.8293,1.704,8.34,1111122 
DISL,ioos:station:DISL:BSCA:1,2013-11-04T20:00:00Z,30.3288,-87.8293,1.712,8.37,1111122 
DISL,ioos:station:DISL:BSCA:1,2013-11-04T20:30:00Z,30.3288,-87.8293,1.755,8.47,1111122 
DISL,ioos:station:DISL:BSCA:1,2013-11-04T21:00:00Z,30.3288,-87.8293,1.779,8.61,1111122 
DISL,ioos:station:DISL:BSCA:1,2013-11-04T21:30:00Z,30.3288,-87.8293,1.811,8.5,1111122 
DISL,ioos:station:DISL:BSCA:1,2013-11-04T22:00:00Z,30.3288,-87.8293,1.842,8.33,1111122 
DISL,ioos:station:DISL:BSCA:1,2013-11-04T22:30:00Z,30.3288,-87.8293,1.873,8.2,1111122 
DISL,ioos:station:DISL:BSCA:1,2013-11-04T23:00:00Z,30.3288,-87.8293,1.901,8.06,1111122 
DISL,ioos:station:DISL:BSCA:1,2013-11-04T23:30:00Z,30.3288,-87.8293,1.937,8.3,1111122 
DISL,ioos:station:DISL:BSCA:1,2013-11-05T00:00:00Z,30.3288,-87.8293,1.966,8.24,1111122 
DISL,ioos:station:DISL:BSCA:1,2013-11-05T00:30:00Z,30.3288,-87.8293,2.004,7.9,1111122 
DISL,ioos:station:DISL:BSCA:1,2013-11-05T01:00:00Z,30.3288,-87.8293,2.037,7.79,1111122 
DISL,ioos:station:DISL:BSCA:1,2013-11-05T01:30:00Z,30.3288,-87.8293,2.075,7.97,1111122 
DISL,ioos:station:DISL:BSCA:1,2013-11-05T02:00:00Z,30.3288,-87.8293,2.104,7.75,1111122 
DISL,ioos:station:DISL:BSCA:1,2013-11-05T02:30:00Z,30.3288,-87.8293,2.136,7.69,1111122 
DISL,ioos:station:DISL:BSCA:1,2013-11-05T03:00:00Z,30.3288,-87.8293,2.163,7.66,1111122 
DISL,ioos:station:DISL:BSCA:1,2013-11-05T03:30:00Z,30.3288,-87.8293,2.18,7.99,1111122 
DISL,ioos:station:DISL:BSCA:1,2013-11-05T04:00:00Z,30.3288,-87.8293,2.184,7.96,1111122 
DISL,ioos:station:DISL:BSCA:1,2013-11-05T04:30:00Z,30.3288,-87.8293,2.188,7.9,1111122 
DISL,ioos:station:DISL:BSCA:1,2013-11-05T05:00:00Z,30.3288,-87.8293,2.167,8.03,1111122 
DISL,ioos:station:DISL:BSCA:1,2013-11-05T05:30:00Z,30.3288,-87.8293,2.197,8.22,1111122 
DISL,ioos:station:DISL:BSCA:1,2013-11-05T06:00:00Z,30.3288,-87.8293,2.213,8.08,1111122 
DISL,ioos:station:DISL:BSCA:1,2013-11-05T06:30:00Z,30.3288,-87.8293,2.222,7.99,1111122 
DISL,ioos:station:DISL:BSCA:1,2013-11-05T07:00:00Z,30.3288,-87.8293,2.216,8.08,1111122 
DISL,ioos:station:DISL:BSCA:1,2013-11-05T07:30:00Z,30.3288,-87.8293,2.187,8.13,1111122 
DISL,ioos:station:DISL:BSCA:1,2013-11-05T08:00:00Z,30.3288,-87.8293,2.15,8.17,1111122 
DISL,ioos:station:DISL:BSCA:1,2013-11-05T08:30:00Z,30.3288,-87.8293,2.108,8.27,1111122 
DISL,ioos:station:DISL:BSCA:1,2013-11-05T09:00:00Z,30.3288,-87.8293,2.063,8.28,1111122 
DISL,ioos:station:DISL:BSCA:1,2013-11-05T09:30:00Z,30.3288,-87.8293,2.006,8.26,1111122 
DISL,ioos:station:DISL:BSCA:1,2013-11-05T10:00:00Z,30.3288,-87.8293,1.972,8.26,1111122 
DISL,ioos:station:DISL:BSCA:1,2013-11-05T10:30:00Z,30.3288,-87.8293,1.921,8.09,1111122 
DISL,ioos:station:DISL:BSCA:1,2013-11-05T11:00:00Z,30.3288,-87.8293,1.897,8.01,1111122 
DISL,ioos:station:DISL:BSCA:1,2013-11-05T11:30:00Z,30.3288,-87.8293,1.855,8.1,1111122 
DISL,ioos:station:DISL:BSCA:1,2013-11-05T12:00:00Z,30.3288,-87.8293,1.831,8.02,1111122 
DISL,ioos:station:DISL:BSCA:1,2013-11-05T12:30:00Z,30.3288,-87.8293,1.807,8.04,1111122 
DISL,ioos:station:DISL:BSCA:1,2013-11-05T13:00:00Z,30.3288,-87.8293,1.762,7.92,1111122 
DISL,ioos:station:DISL:BSCA:1,2013-11-05T13:30:00Z,30.3288,-87.8293,1.736,7.96,1111122 
DISL,ioos:station:DISL:BSCA:1,2013-11-05T14:00:00Z,30.3288,-87.8293,1.708,7.94,1111122 
DISL,ioos:station:DISL:BSCA:1,2013-11-05T14:30:00Z,30.3288,-87.8293,1.724,8.12,1111122 
DISL,ioos:station:DISL:BSCA:1,2013-11-05T15:00:00Z,30.3288,-87.8293,1.711,8.15,1111122 
DISL,ioos:station:DISL:BSCA:1,2013-11-05T15:30:00Z,30.3288,-87.8293,1.707,8.23,1111122 
DISL,ioos:station:DISL:BSCA:1,2013-11-05T16:00:00Z,30.3288,-87.8293,1.7,8.4,1111122 
DISL,ioos:station:DISL:BSCA:1,2013-11-05T16:30:00Z,30.3288,-87.8293,1.699,8.47,1111122 
DISL,ioos:station:DISL:BSCA:1,2013-11-05T17:00:00Z,30.3288,-87.8293,1.724,8.43,1111122 
DISL,ioos:station:DISL:BSCA:1,2013-11-05T17:30:00Z,30.3288,-87.8293,1.732,8.59,1111122 
DISL,ioos:station:DISL:BSCA:1,2013-11-05T18:00:00Z,30.3288,-87.8293,1.765,8.48,1111122 
DISL,ioos:station:DISL:BSCA:1,2013-11-05T18:30:00Z,30.3288,-87.8293,1.786,8.63,1111122 
DISL,ioos:station:DISL:BSCA:1,2013-11-05T19:00:00Z,30.3288,-87.8293,1.805,8.71,1111122 
DISL,ioos:station:DISL:BSCA:1,2013-11-05T19:30:00Z,30.3288,-87.8293,1.813,8.74,1111122 
DISL,ioos:station:DISL:BSCA:1,2013-11-05T20:00:00Z,30.3288,-87.8293,1.833,8.71,1111122 
DISL,ioos:station:DISL:BSCA:1,2013-11-05T20:30:00Z,30.3288,-87.8293,1.862,8.66,1111122 
DISL,ioos:station:DISL:BSCA:1,2013-11-05T21:00:00Z,30.3288,-87.8293,1.897,8.52,1111122 
DISL,ioos:station:DISL:BSCA:1,2013-11-05T21:30:00Z,30.3288,-87.8293,1.929,8.56,1111122 
DISL,ioos:station:DISL:BSCA:1,2013-11-05T22:00:00Z,30.3288,-87.8293,1.96,8.3,1111122 
DISL,ioos:station:DISL:BSCA:1,2013-11-05T22:30:00Z,30.3288,-87.8293,1.974,8.47,1111122 
DISL,ioos:station:DISL:BSCA:1,2013-11-05T23:00:00Z,30.3288,-87.8293,1.996,8.32,1111122 
DISL,ioos:station:DISL:BSCA:1,2013-11-05T23:30:00Z,30.3288,-87.8293,2.021,8.63,1111122 
DISL,ioos:station:DISL:BSCA:1,2013-11-06T00:00:00Z,30.3288,-87.8293,2.049,8.24,1111122 
DISL,ioos:station:DISL:BSCA:1,2013-11-06T00:30:00Z,30.3288,-87.8293,2.056,8.23,1111122 
DISL,ioos:station:DISL:BSCA:1,2013-11-06T01:00:00Z,30.3288,-87.8293,2.104,8.55,1111122 
DISL,ioos:station:DISL:BSCA:1,2013-11-06T01:30:00Z,30.3288,-87.8293,2.125,8.6,1111122 
DISL,ioos:station:DISL:BSCA:1,2013-11-06T02:00:00Z,30.3288,-87.8293,2.162,8.86,1111122 
DISL,ioos:station:DISL:BSCA:1,2013-11-06T02:30:00Z,30.3288,-87.8293,2.185,8.32,1111122 
DISL,ioos:station:DISL:BSCA:1,2013-11-06T03:00:00Z,30.3288,-87.8293,2.211,8.07,1111122 
DISL,ioos:station:DISL:BSCA:1,2013-11-06T03:30:00Z,30.3288,-87.8293,2.232,8.06,1111122 
DISL,ioos:station:DISL:BSCA:1,2013-11-06T04:00:00Z,30.3288,-87.8293,2.254,8.48,1111122 
DISL,ioos:station:DISL:BSCA:1,2013-11-06T04:30:00Z,30.3288,-87.8293,2.277,8.07,1111122 
DISL,ioos:station:DISL:BSCA:1,2013-11-06T05:00:00Z,30.3288,-87.8293,2.277,8.08,1111122 
DISL,ioos:station:DISL:BSCA:1,2013-11-06T05:30:00Z,30.3288,-87.8293,2.277,8.12,1111122 
DISL,ioos:station:DISL:BSCA:1,2013-11-06T06:00:00Z,30.3288,-87.8293,2.289,8.13,1111122 
DISL,ioos:station:DISL:BSCA:1,2013-11-06T06:30:00Z,30.3288,-87.8293,2.288,8.17,1111122 
DISL,ioos:station:DISL:BSCA:1,2013-11-06T07:00:00Z,30.3288,-87.8293,2.293,7.99,1111122 
DISL,ioos:station:DISL:BSCA:1,2013-11-06T07:30:00Z,30.3288,-87.8293,2.276,7.78,1111122 
DISL,ioos:station:DISL:BSCA:1,2013-11-06T08:00:00Z,30.3288,-87.8293,2.256,7.65,1111122 
DISL,ioos:station:DISL:BSCA:1,2013-11-06T08:30:00Z,30.3288,-87.8293,2.226,8.01,1111122 
DISL,ioos:station:DISL:BSCA:1,2013-11-06T09:00:00Z,30.3288,-87.8293,2.185,8.04,1111122 
DISL,ioos:station:DISL:BSCA:1,2013-11-06T09:30:00Z,30.3288,-87.8293,2.15,8.12,1111122 
DISL,ioos:station:DISL:BSCA:1,2013-11-06T10:00:00Z,30.3288,-87.8293,2.107,8.19,1111122 
DISL,ioos:station:DISL:BSCA:1,2013-11-06T10:30:00Z,30.3288,-87.8293,2.054,7.92,1111122 
DISL,ioos:station:DISL:BSCA:1,2013-11-06T11:00:00Z,30.3288,-87.8293,2.025,8.29,1111122 
DISL,ioos:station:DISL:BSCA:1,2013-11-06T11:30:00Z,30.3288,-87.8293,1.987,7.83,1111122 
DISL,ioos:station:DISL:BSCA:1,2013-11-06T12:00:00Z,30.3288,-87.8293,1.954,8.28,1111122 
DISL,ioos:station:DISL:BSCA:1,2013-11-06T12:30:00Z,30.3288,-87.8293,1.922,8.22,1111122 
DISL,ioos:station:DISL:BSCA:1,2013-11-06T13:00:00Z,30.3288,-87.8293,1.883,8.09,1111122 
DISL,ioos:station:DISL:BSCA:1,2013-11-06T13:30:00Z,30.3288,-87.8293,1.848,8.24,1111122 
DISL,ioos:station:DISL:BSCA:1,2013-11-06T14:00:00Z,30.3288,-87.8293,1.815,8.13,1111122 
DISL,ioos:station:DISL:BSCA:1,2013-11-06T14:30:00Z,30.3288,-87.8293,1.797,8.23,1111122 
DISL,ioos:station:DISL:BSCA:1,2013-11-06T15:00:00Z,30.3288,-87.8293,1.775,8.32,1111122 
DISL,ioos:station:DISL:BSCA:1,2013-11-06T15:30:00Z,30.3288,-87.8293,1.756,8.57,1111122 